세미나안내

[2016 10 05] 정기세미나 3rd

Noble Metal Nanocrystals with Unprecedented Morphologies

MSE Graduate Students and Researchers

관리자 | 2016.10.04 09:04 | 조회 506


Reception: MSE Graduate Students and Researchers

Reference: MSE Professors

Subject: The 3rd Seminar - Fall Semester, 2016

 

 Date: 2016. 10. 05 , 17:00 ~ 18:15

 Place: Science Building, Room.202 Multimedia Room

 Title: Noble Metal Nanocrystals with Unprecedented Morphologies

 Speaker: Prof. Sang Woo Han(KAIST)

Host of a Seminar: Prof. Moon-Ho Jo

 

Speaker Language: ENGLISH

 

Abstract:

 

The morphology of metal nanocrystals explicitly determines their plasmonic, electronic, and catalytic characteristics. In particular, the catalytic activity and selectivity of nanocrystals can be tuned by controlling their shape, as the exposed surfaces of nanocrystals have distinct crystallographic planes that can determine their overall catalytic properties. However, the control of the size, shape, and composition of nanocrystals has been limited due to the complex kinetics in the reduction of metal precursors and to the difficulty in finding suitable stabilizing agents. Therefore, the development of an efficient synthesis route for the preparation of nanocrystals with a specific morphology is still a radical issue to study their properties and applications. Here, facile wet-chemical synthetic processes of noble metal nanocrystals with unprecedented morphologies and their applications in catalysis are reported.

 

 

Department of Materials Science and Engineering




163개(1/9페이지)
세미나안내
번호 제목 글쓴이 조회 날짜
163 [2017 06 13] 특별세미나 강민철 (3D 프린팅 연구조합 상임이사 첨부파일 관리자 1520 2017.06.07 09:25
162 [2017 05 31] 정기세미나 11th (최경만 교수 정년퇴임 기념 첨부파일 관리자 150 2017.05.29 14:36
161 [2017 05 24] 정기세미나 10th 첨부파일 관리자 1483 2017.05.22 08:38
160 [2017 05 19] 특별세미나 임영목 (산업기술평가원 PD) 첨부파일 관리자 832 2017.05.15 09:23
159 [2017 05 17] 정기세미나 9th 첨부파일 관리자 505 2017.05.15 09:23
158 [2017 05 10] 정기세미나 8th 첨부파일 관리자 149 2017.05.08 09:00
157 [2017 04 26] 정기세미나 7th 첨부파일 관리자 220 2017.04.17 10:24
156 [2017 04 24]포스텍-POSCO기술연구소 연구분야 포럼 사진 첨부파일 관리자 201 2017.04.20 11:31
155 [2017 04 19] 정기세미나 6th 첨부파일 관리자 211 2017.04.17 10:24
154 [2017 04 05] 정기세미나 5th 첨부파일 관리자 243 2017.04.03 09:08
153 [2017 03 29] 정기세미나 4th 첨부파일 관리자 6856 2017.03.27 11:50
152 [2017 03 22] 정기세미나 3rd 첨부파일 관리자 1265 2017.03.20 09:28
151 [2017 03 15] 정기세미나 2nd 첨부파일 관리자 2462 2017.03.13 09:16
150 [2017 03 09] 특별세미나 Ph.D Rishi Raj 첨부파일 관리자 1588 2017.03.07 15:32
149 [2017 03 08] 정기세미나 1st 첨부파일 관리자 290 2017.03.07 09:13
148 [2017 02 22] 신소재공학과 특별세미나 첨부파일 관리자 320 2017.02.22 09:21
147 [2016 12 14] 정기세미나 12th 첨부파일 관리자 29089 2016.12.12 13:04
146 [2016 12 07] 정기세미나 11th 첨부파일 관리자 604 2016.12.05 09:11
145 [2016 11 30] 정기세미나 10th 첨부파일 관리자 669 2016.11.28 16:48
144 [2016 11 23] 정기세미나 9th 첨부파일 관리자 5777 2016.11.07 09:18